OneWeb SL0417

operational
NORAD ID: 50492 Int'l Des: 2021-132 Owner: ONEWEBN Country: UK Constellation: oneweb
LEOCIRCULARPOLARONEWEB_TYPE

About OneWeb SL0417

Description loading...

Live Position

Loading 3D Globe...

Upcoming Passes

Altitude History

Altitude vs Time

uPlot chart will show altitude changes over time

Two-Line Element Set

1 50492U 21132Z 26063.31733986 .00001040 00000-0 26034-2 0 9998
2 50492 87.9240 356.2885 0001940 73.0911 287.0434 13.18694523207788
Epoch: Mar 4, 2026 • Age: 23 hours

Current Status

Altitude 1201.5 km
Velocity 7.26 km/s
Sub-Earth Point 77.76°N, 135.63°W
Launch Date Dec 27, 2021
Age 4.1 years
Type internet

Technical Details

Classification Payload
Mass 148.00 kg
Dry Mass 140.00 kg
Total Mass 148.00 kg
Length 1.30 m
Diameter 1.00 m
Span 5.00 m
Shape Trapezoid+2 pan
Manufacturer ONEWUS
Bus Type ARROW
Phase Status In Orbit
Owner/State ONEWEBN/UK

Large Constellations

Loading constellations...